Location: Casteau
(50.5142°N, 4.0161°E)
Time: 07:37:09
(UTC+00:00)

Lacrosse 4 Rocket - Pass Details

Date: 18 September 2020
Orbit: 543 x 615 km, 68.0° (Epoch: 27 October)

Event Time Altitude Azimuth Distance (km) Brightness Sun altitude
Rises 19:18:53 0° 330° (NNW) 2,717 5.7 -14.6°
Reaches altitude 10° 19:22:47 10° 8° (N) 1,822 4.1 -15.2°
Maximum altitude 19:23:55 11° 24° (NNE) 1,760 3.9 -15.3°
Drops below altitude 10° 19:25:04 10° 41° (NE) 1,823 3.8 -15.5°
Enters shadow 19:25:50 - 51° (NE) 1,931 3.8 -15.6°
